Regional Weather Roundup
Issued by NWS

Home | Current Version | Previous Version | Graphics & Text | Print | Product List | Glossary On
Versions: 1 2 3 4 5 6 7 8 9 10 11 12 13 14 15 16 17 18 19 20 21 22 23 24 25 26 27 28 29 30 31 32 33 34 35 36 37 38 39 40 41 42 43 44 45 46 47 48 49 50
074
ASUS45 KCYS 200610
RWRWY

WYOMING REGIONAL WEATHER ROUNDUP
NATIONAL WEATHER SERVICE CHEYENNE WY
1100 PM MST THU JAN 19 2017

NOTE:  "FAIR" INDICATES FEW OR NO CLOUDS BELOW 12,000 FEET
WITH NO SIGNIFICANT WEATHER AND/OR OBSTRUCTIONS TO VISIBILITY.

WYZ001-200700-
YELLOWSTONE NATIONAL PARK

CITY           SKY/WX    TMP DP  RH WIND       PRES   REMARKS
LK YELLOWSTONE   N/A     23  19  85 VRB5      29.60S WCI  17
6HR MIN TEMP:  22; 6HR MAX TEMP:  24; 6HR PCP:  0.05;

W YELLOWSTONE  NOT AVBL

$$
WYZ002>013-054>058-071-098>099-200700-
NORTHERN WYOMING

CITY           SKY/WX    TMP DP  RH WIND       PRES   REMARKS
JACKSON        CLOUDY    27  25  93 SW3       29.61S
CODY           FAIR      35  23  61 SW5       29.52S WCI  31
GREYBULL       CLOUDY    24  18  77 CALM      29.53S
6HR MIN TEMP:  22; 6HR MAX TEMP:  25;

WORLAND        CLOUDY    26  23  88 CALM      29.52S
6HR MIN TEMP:  24; 6HR MAX TEMP:  28;

SHERIDAN       FAIR      32  22  66 SW13      29.50S WCI  22
6HR MIN TEMP:  20; 6HR MAX TEMP:  34;

BUFFALO        FAIR      36  20  52 NW6       29.50R WCI  31
6HR MIN TEMP:  30; 6HR MAX TEMP:  41;

GILLETTE       FAIR      31  24  75 W9        29.47S WCI  23
6HR MIN TEMP:  30; 6HR MAX TEMP:  40;

HULETT         FAIR      27  21  80 S9        29.47S WCI  17
NEWCASTLE      FAIR      27  19  74 N6        29.48F WCI  20

$$
WYZ014>020-022>026-101>103-200700-
CENTRAL WYOMING

CITY           SKY/WX    TMP DP  RH WIND       PRES   REMARKS
BIG PINEY      CLOUDY    11   9  92 NW5       29.63F WCI   3
6HR MIN TEMP:  11; 6HR MAX TEMP:  14; 6HR PCP: TRACE;

PINEDALE       MOCLDY    10   9  92 NE6       29.62S WCI   1
DUBOIS         NOT AVBL
LANDER         CLOUDY    22  16  78 CALM      29.53F
6HR MIN TEMP:  20; 6HR MAX TEMP:  23;

RIVERTON       MOCLDY    18  13  80 CALM      29.55S
6HR MIN TEMP:  17; 6HR MAX TEMP:  21;

CASPER         CLOUDY    33  26  75 SW23      29.53R WCI  21
6HR MIN TEMP:  30; 6HR MAX TEMP:  35;

DOUGLAS        FAIR      33  23  66 W9        29.50S WCI  25
6HR MIN TEMP:  31; 6HR MAX TEMP:  39;


$$
WYZ021-027>030-104>119-200700-
SOUTHERN WYOMING

CITY           SKY/WX    TMP DP  RH WIND       PRES   REMARKS
EVANSTON       LGT SNOW  26  23  88 S3        29.63F FOG
6HR MIN TEMP:  26; 6HR MAX TEMP:  28; 6HR PCP:  0.02;

ROCK SPRINGS   MOCLDY    21  19  92 W8        29.61F WCI  11
6HR MIN TEMP:  15; 6HR MAX TEMP:  23; 6HR PCP: TRACE;

RAWLINS        LGT SNOW  28  23  81 SW15      29.60F WCI  16
6HR MIN TEMP:  28; 6HR MAX TEMP:  30; 6HR PCP: TRACE;

LARAMIE        FAIR      22  15  75 W8        29.54S WCI  12
6HR MIN TEMP:  13; 6HR MAX TEMP:  24;

CHEYENNE       FAIR      31  19  61 W10       29.50F WCI  22
6HR MIN TEMP:  31; 6HR MAX TEMP:  43;

TORRINGTON     FAIR      28  20  71 NE3       29.48F
6HR MIN TEMP:  27; 6HR MAX TEMP:  46;


$$




USA.gov is the U.S. government's official web portal to all federal, state and local government web resources and services.